Погода в Амуре

Россия / Иркутская область     54°13′08″N   101°06′48″E
В апреле 2022 года жителям России запретили посещать сайт meteo.paraplan.net по решению Генеральной прокуратуры. Аудитория сайта уменьшилась в 10 раз. Владельцы сайта не видят смысла в поддержке погодного сервера в таких условиях. Сайт будет закрыт в октябре.
темп.,
°C
ветер,
м/с
пор.,
м/с
влажн.,
%
обл.,
%
осадки,
мм/ч
давл.,
гПа
погр.,
м
3 октября, пн
пн323:00−1зсз41080100 0.0 1040987
02:00−1з497798 0.0 1040875
05:00−3зсз2789100 0.0 1041231
08:00−4зсз25886 0.0 1041161
11:00+2зсз355686 0.0 10391008
14:00+4зсз2542100 0.0 10371696
17:00+4ссз234367 0.0 10361252
20:00−1св2474100 0.0 103788
4 октября, вт
вт423:00−2с2278100 0.0 103856
02:00−2сз149695 0.1 1037185
05:00−2зсз2497100 0.4 1037286
08:00−2зсз129597 0.6 1038123
11:00+1сз126894 0.0 1037883
14:00+2сз1260100 0.1 10351050
17:00+2с126163 0.0 1035782
20:00−3в11815 0.0 103610
5 октября, ср
ср523:00−4юв118737 0.0 103610
02:00−4юв11905 0.0 103510
05:00−4ююв11935 0.0 103410
08:00−4ююв12915 0.0 103446
11:00+2ю226291 0.0 1031486
14:00+6з124899 0.0 1028855
17:00+6с115355 0.0 1026424
20:000юв22755 0.0 102713
6 октября, чт
чт623:00−1ююв228092 0.0 102622
02:00−1зюз1178100 0.0 102510
05:00−1ссз2693100 0.2 1026192
08:00+1з1299100 1.1 1026101
11:00+3сз4768100 0.1 1026901
14:00+3сз3460100 0.1 10251216
17:00+3ссз1263100 0.0 1024824
20:000зсз1178100 0.0 102512
7 октября, пт
пт723:00−1зюз2392100 0.0 102668
02:00−1з2498100 0.0 1026107
05:00−2сз2598100 0.0 1027124
08:00−1сз3795100 1.2 1029539
11:00+1сз467899 0.3 1030901
14:00+2сз4667100 0.8 10301232
17:00+2сз357195 0.3 1030959
20:00−3ссз229216 0.4 103416